Regional Weather Roundup
Issued by NWS

Home | Current Version | Previous Version | Graphics & Text | Print | Product List | Glossary On
Versions: 1 2 3 4 5 6 7 8 9 10 11 12 13 14 15 16 17 18 19 20 21 22 23 24 25 26 27 28 29 30 31 32 33 34 35 36 37 38 39 40 41 42 43 44 45 46 47 48 49 50
000
ASUS45 KBOI 232110
RWRID
WEATHER ROUNDUP FOR IDAHO
NATIONAL WEATHER SERVICE BOISE ID
300 PM MDT WED JUL 23 2014

NOTE: "FAIR" INDICATES FEW OR NO CLOUDS BELOW 12000 FEET
WITH NO SIGNIFICANT WEATHER AND/OR OBSTRUCTIONS TO VISIBILITY

IDZ012-014-232200-
SOUTHWEST IDAHO


CITY           SKY/WX    TMP DP  RH WIND       PRES   REMARKS
BOISE          SUNNY     90  42  18 CALM      29.97F
CALDWELL       SUNNY     90  52  27 E8        29.97F
MOUNTAIN HOME  MOSUNNY   92  43  18 E7        29.97F
$$

IDZ016-017-232200-
SOUTHCENTRAL IDAHO


CITY           SKY/WX    TMP DP  RH WIND       PRES   REMARKS
BURLEY         SUNNY     91  45  20 NE8       30.04F
JEROME         MOSUNNY   91  54  28 N7        30.03F
TWIN FALLS     MOSUNNY   92  48  22 N9        30.03F
$$

IDZ019>023-232200-
SOUTHEAST IDAHO


CITY           SKY/WX    TMP DP  RH WIND       PRES   REMARKS
IDAHO FALLS    MOSUNNY   92  35  13 SW12      30.12F
POCATELLO      SUNNY     91  45  20 NW9       30.09F
REXBURG        MOSUNNY   88  39  17 SW8       30.14F
$$

IDZ006-010-011-018-031-032-232200-
CENTRAL IDAHO MOUNTAINS


CITY           SKY/WX    TMP DP  RH WIND       PRES   REMARKS
MCCALL         MOSUNNY   82  42  24 S16G28    30.10S
HAILEY         PTSUNNY   81  52  36 SE12      30.17F
STANLEY          N/A     82  33  17 SW10      30.20F
SALMON         MOSUNNY   84  52  32 N7        30.00F
CHALLIS        MOSUNNY   85  41  21 NE6       30.08F
$$

IDZ002-004-006-007-026-232200-
NORTHERN IDAHO


CITY           SKY/WX    TMP DP  RH WIND       PRES   REMARKS
LEWISTON       MOSUNNY   92  56  29 NW14G20   29.82F HX  90
LOWELL           N/A     94  63  35 CALM      29.80F HX  95
COEUR D`ALENE  SUNNY     84  55  37 W9        29.89F
MULLAN PASS    MOSUNNY   72  48  42 VRB7      30.14F
$$



USA.gov is the U.S. government's official web portal to all federal, state and local government web resources and services.